�������l�o���
Date,Time,MP-1(��Sv/h),MP-2(��Sv/h),MP-3(��Sv/h),MP-4(��Sv/h),MP-5(��Sv/h),MP-6(��Sv/h),MP-7(��Sv/h),MP-8(��Sv/h),����,����(m/s),���J
2015/03/16,00:00,1.905,3.463,3.775,3.392,3.590,1.068,1.788,1.745,-,CALM,��
2015/03/16,00:10,1.903,3.465,3.778,3.393,3.590,1.068,1.788,1.743,-,CALM,��
2015/03/16,00:20,1.905,3.467,3.775,3.392,3.595,1.068,1.790,1.743,�k��,0.6,��
2015/03/16,00:30,1.907,3.470,3.778,3.388,3.592,1.067,1.788,1.742,�k�k��,0.9,��
2015/03/16,00:40,1.907,3.465,3.775,3.390,3.583,1.067,1.793,1.745,�k�k��,1.3,��
2015/03/16,00:50,1.907,3.465,3.773,3.392,3.585,1.068,1.790,1.742,�k�k��,1.8,��
2015/03/16,01:00,1.907,3.460,3.770,3.390,3.583,1.068,1.792,1.742,�k�k��,1.7,��
2015/03/16,01:10,1.908,3.465,3.775,3.390,3.587,1.070,1.788,1.742,�k�k��,2.2,��
2015/03/16,01:20,1.907,3.468,3.775,3.392,3.588,1.070,1.790,1.743,�k��,3.2,��
2015/03/16,01:30,1.905,3.468,3.777,3.388,3.588,1.070,1.787,1.745,�k��,3.5,��
2015/03/16,01:40,1.910,3.465,3.772,3.388,3.585,1.065,1.788,1.745,�k�k��,3.8,��
2015/03/16,01:50,1.907,3.463,3.772,3.392,3.582,1.067,1.788,1.743,�k��,5.4,��
2015/03/16,02:00,1.908,3.463,3.777,3.393,3.585,1.068,1.787,1.745,�k��,4.5,��
2015/03/16,02:10,1.905,3.463,3.773,3.395,3.585,1.072,1.787,1.743,�k��,3.9,��
2015/03/16,02:20,1.905,3.465,3.772,3.390,3.587,1.068,1.788,1.745,�k�k��,3.2,��
2015/03/16,02:30,1.908,3.465,3.772,3.393,3.588,1.067,1.788,1.747,�k��,2.6,��
2015/03/16,02:40,1.907,3.463,3.773,3.392,3.592,1.063,1.788,1.745,�k��,2.8,��
2015/03/16,02:50,1.907,3.463,3.770,3.392,3.590,1.067,1.787,1.747,�k�k��,1.5,��
2015/03/16,03:00,1.908,3.462,3.772,3.392,3.583,1.065,1.788,1.742,�k��,1.8,��
2015/03/16,03:10,1.907,3.463,3.773,3.390,3.585,1.067,1.787,1.745,�k��,1.5,��
2015/03/16,03:20,1.907,3.460,3.773,3.388,3.587,1.068,1.788,1.743,���k��,1.3,��
2015/03/16,03:30,1.907,3.460,3.773,3.392,3.590,1.065,1.787,1.742,�쐼,0.9,��
2015/03/16,03:40,1.907,3.463,3.770,3.392,3.590,1.067,1.785,1.742,���쐼,1.3,��
2015/03/16,03:50,1.908,3.462,3.767,3.393,3.588,1.067,1.785,1.743,�쐼,0.8,��
2015/03/16,04:00,1.907,3.465,3.770,3.390,3.585,1.067,1.787,1.742,��쓌,0.9,��
2015/03/16,04:10,1.908,3.463,3.770,3.390,3.588,1.068,1.785,1.747,��,1.4,��
2015/03/16,04:20,1.907,3.458,3.767,3.390,3.585,1.067,1.787,1.743,��,1.4,��
2015/03/16,04:30,1.907,3.465,3.770,3.390,3.585,1.068,1.783,1.743,��,1.6,��
2015/03/16,04:40,1.907,3.460,3.767,3.388,3.585,1.065,1.785,1.745,��쐼,1.0,��
2015/03/16,04:50,1.907,3.460,3.765,3.388,3.582,1.062,1.785,1.743,��쐼,1.2,��
2015/03/16,05:00,1.902,3.457,3.763,3.392,3.583,1.065,1.785,1.745,��,1.4,��
2015/03/16,05:10,1.910,3.460,3.762,3.390,3.583,1.067,1.785,1.743,��,1.9,��
2015/03/16,05:20,1.905,3.462,3.765,3.387,3.585,1.063,1.785,1.743,��쐼,1.1,��
2015/03/16,05:30,1.902,3.460,3.768,3.388,3.583,1.065,1.780,1.743,��,1.8,��
2015/03/16,05:40,1.905,3.460,3.765,3.390,3.582,1.063,1.783,1.742,��,2.3,��
2015/03/16,05:50,1.907,3.462,3.768,3.392,3.582,1.060,1.785,1.740,��,2.4,��
2015/03/16,06:00,1.907,3.462,3.767,3.390,3.582,1.060,1.785,1.742,��,3.4,��
2015/03/16,06:10,1.905,3.462,3.765,3.390,3.583,1.063,1.783,1.742,��,2.6,��
2015/03/16,06:20,1.908,3.460,3.770,3.390,3.582,1.062,1.787,1.743,��,2.7,��
2015/03/16,06:30,1.905,3.462,3.767,3.393,3.577,1.058,1.785,1.743,��쐼,2.3,��
2015/03/16,06:40,1.905,3.463,3.767,3.388,3.575,1.058,1.785,1.743,�쐼,3.9,��
2015/03/16,06:50,1.910,3.460,3.767,3.393,3.575,1.055,1.787,1.742,���쐼,5.2,��
2015/03/16,07:00,1.905,3.462,3.763,3.395,3.577,1.052,1.787,1.742,���쐼,6.0,��
2015/03/16,07:10,1.903,3.463,3.772,3.390,3.575,1.050,1.787,1.743,���쐼,2.1,��
2015/03/16,07:20,1.907,3.467,3.772,3.392,3.582,1.045,1.787,1.747,��,1.0,��
2015/03/16,07:30,1.908,3.467,3.777,3.393,3.582,1.047,1.787,1.743,�k��,1.4,��
2015/03/16,07:40,1.905,3.463,3.778,3.395,3.582,1.042,1.787,1.747,���k��,0.9,��
2015/03/16,07:50,1.908,3.463,3.773,3.395,3.580,1.045,1.787,1.745,���k��,0.7,��
2015/03/16,08:00,1.907,3.468,3.778,3.397,3.583,1.043,1.788,1.745,���k��,1.8,��
2015/03/16,08:10,1.905,3.467,3.780,3.398,3.588,1.042,1.788,1.743,���k��,1.6,��
2015/03/16,08:20,1.908,3.467,3.783,3.397,3.592,1.040,1.790,1.743,���k��,2.5,��
2015/03/16,08:30,1.908,3.473,3.778,3.400,3.592,1.038,1.790,1.742,���k��,1.8,��
2015/03/16,08:40,1.910,3.470,3.783,3.400,3.590,1.038,1.787,1.742,���k��,1.6,��
2015/03/16,08:50,1.910,3.472,3.787,3.397,3.590,1.043,1.788,1.743,���k��,1.7,��
2015/03/16,09:00,1.908,3.472,3.780,3.400,3.590,1.043,1.790,1.740,�k��,1.6,��
2015/03/16,09:10,1.913,3.475,3.785,3.400,3.595,1.043,1.787,1.740,���k��,1.7,��
2015/03/16,09:20,1.912,3.477,3.785,3.400,3.600,1.043,1.788,1.738,�k�k��,0.8,��
2015/03/16,09:30,1.912,3.472,3.785,3.402,3.600,1.042,1.790,1.743,��,0.7,��
2015/03/16,09:40,1.910,3.468,-,3.402,3.602,1.045,1.788,1.742,��,1.2,��
2015/03/16,09:50,1.910,3.473,-,3.400,3.602,1.045,1.792,1.740,���k��,1.7,��
2015/03/16,10:00,1.912,3.475,-,3.403,3.600,1.045,1.790,1.742,���k��,2.3,��
2015/03/16,10:10,1.910,3.472,-,3.402,3.598,1.045,1.792,1.740,���k��,3.3,��
2015/03/16,10:20,1.910,3.453,3.780,3.403,3.600,1.043,1.790,1.740,���k��,2.7,��
2015/03/16,10:30,1.910,3.448,3.777,3.392,3.600,1.045,1.790,1.738,���k��,2.8,��
2015/03/16,10:40,1.912,3.450,3.780,3.398,3.603,1.047,1.790,1.737,��,3.3,��
2015/03/16,10:50,1.912,3.452,3.783,3.402,3.603,1.045,1.785,1.738,��,2.2,��
2015/03/16,11:00,1.915,3.448,3.785,3.400,3.605,1.045,1.792,1.737,��,2.5,��
2015/03/16,11:10,1.912,3.457,3.785,3.402,3.602,1.048,1.787,1.738,���쓌,2.9,��
2015/03/16,11:20,1.913,3.473,3.782,3.402,3.598,1.045,1.792,1.740,�쓌,2.0,��
2015/03/16,11:30,1.907,3.473,3.783,3.403,3.605,1.045,1.792,1.738,���쓌,1.6,��
2015/03/16,11:40,1.908,3.477,3.787,3.405,3.608,1.048,1.792,1.738,�쓌,1.2,��
2015/03/16,11:50,1.915,3.478,3.790,3.405,3.608,1.052,1.793,1.738,��,2.1,��
2015/03/16,12:00,1.910,3.477,3.788,3.400,3.608,1.048,1.793,1.737,���쓌,2.8,��
2015/03/16,12:10,1.912,3.475,3.795,3.400,3.608,1.048,1.793,1.740,���k��,3.3,��
2015/03/16,12:20,1.912,3.477,3.795,3.402,3.613,1.048,1.792,1.738,���k��,3.1,��
2015/03/16,12:30,1.913,3.478,3.793,3.400,3.613,1.048,1.792,1.737,���k��,2.9,��
2015/03/16,12:40,1.912,3.478,3.790,3.403,3.615,1.050,1.790,1.733,���k��,2.6,��
2015/03/16,12:50,1.910,3.480,3.793,3.407,3.615,1.048,1.785,1.732,���쓌,2.0,��
2015/03/16,13:00,1.915,3.485,3.790,3.405,3.612,1.048,1.783,1.735,���쓌,3.2,��
2015/03/16,13:10,1.915,3.482,3.788,3.408,3.615,1.048,1.785,1.735,��,2.3,��
2015/03/16,13:20,1.913,3.477,3.792,3.405,3.613,1.052,1.788,1.733,���쓌,2.4,��
2015/03/16,13:30,1.913,3.473,3.783,3.407,3.618,1.052,1.787,1.735,���쓌,2.1,��
2015/03/16,13:40,1.915,3.468,3.790,3.402,3.617,1.052,1.788,1.737,���쓌,2.8,��
2015/03/16,13:50,1.915,3.472,3.775,3.405,3.618,1.052,1.788,1.733,���쓌,2.3,��
2015/03/16,14:00,1.917,3.475,3.767,3.407,3.620,1.052,1.787,1.735,���쓌,2.9,��
2015/03/16,14:10,1.913,3.477,3.767,3.407,3.617,1.052,1.790,1.733,���쓌,2.4,��
2015/03/16,14:20,1.915,3.475,3.785,3.402,3.613,1.053,1.793,1.737,�쓌,2.2,��
2015/03/16,14:30,1.917,3.475,3.788,3.405,3.618,1.055,1.795,1.735,�쓌,2.8,��
2015/03/16,14:40,1.915,3.475,-,3.402,3.617,1.053,1.795,1.733,�쓌,2.7,��
2015/03/16,14:50,1.915,3.475,-,3.407,3.615,1.055,1.793,1.737,�쓌,2.2,��
2015/03/16,15:00,1.915,3.473,-,3.403,3.617,1.055,1.795,1.737,�쓌,2.6,��
2015/03/16,15:10,1.915,3.475,-,3.403,3.618,1.057,1.793,1.733,�쓌,2.9,��
2015/03/16,15:20,1.917,3.475,-,3.407,3.617,1.058,1.795,1.737,�쓌,2.8,��
2015/03/16,15:30,1.913,3.475,-,3.402,3.617,1.062,1.795,1.735,�쓌,2.1,��
2015/03/16,15:40,1.915,3.475,-,3.403,3.615,1.063,1.792,1.737,�쓌,3.0,��
2015/03/16,15:50,1.915,3.473,-,3.407,3.612,1.062,1.792,1.737,���쓌,2.7,��
2015/03/16,16:00,1.913,3.475,-,3.402,3.615,1.063,1.797,1.733,��쓌,3.6,��
2015/03/16,16:10,1.915,3.473,-,3.402,3.617,1.062,1.793,1.733,�쓌,3.0,��
2015/03/16,16:20,1.912,3.472,-,3.402,3.617,1.063,1.793,1.735,��쓌,2.7,��
2015/03/16,16:30,1.913,3.473,-,3.402,3.608,1.065,1.790,1.733,��쓌,4.0,��
2015/03/16,16:40,1.917,3.472,-,3.403,3.612,1.063,1.792,1.733,��쓌,3.3,��
2015/03/16,16:50,1.913,3.467,3.792,3.407,3.613,1.067,1.793,1.737,��쓌,3.8,��
2015/03/16,17:00,1.912,3.468,3.792,3.403,3.617,1.062,1.795,1.733,��쓌,3.1,��
2015/03/16,17:10,1.910,3.472,3.790,3.398,3.613,1.063,1.793,1.733,��쓌,4.3,��
2015/03/16,17:20,1.910,3.468,3.792,3.398,3.610,1.063,1.792,1.735,��쓌,2.7,��
2015/03/16,17:30,1.910,3.468,3.792,3.403,3.613,1.062,1.792,1.735,��쓌,3.2,��
2015/03/16,17:40,1.907,3.467,3.790,3.398,3.610,1.065,1.793,1.737,��쓌,3.4,��
2015/03/16,17:50,1.910,3.465,3.792,3.403,3.615,1.063,1.792,1.733,��쓌,3.8,��
2015/03/16,18:00,1.913,3.465,3.788,3.402,3.620,1.065,1.792,1.733,��쓌,4.3,��
2015/03/16,18:10,1.912,3.470,3.788,3.400,3.613,1.067,1.792,1.733,��쓌,4.6,��
2015/03/16,18:20,1.912,3.468,3.785,3.397,3.610,1.065,1.793,1.732,��쓌,4.7,��
2015/03/16,18:30,1.910,3.465,3.787,3.398,3.613,1.067,1.792,1.735,��쓌,6.0,��
2015/03/16,18:40,1.913,3.467,3.790,3.398,3.608,1.067,1.792,1.732,��,6.4,��
2015/03/16,18:50,1.912,3.465,3.790,3.400,3.612,1.068,1.792,1.733,��,5.7,��
2015/03/16,19:00,1.913,3.465,3.790,3.398,3.612,1.068,1.792,1.735,��,5.7,��
2015/03/16,19:10,1.905,3.470,3.787,3.397,3.612,1.070,1.790,1.733,��,6.3,��
2015/03/16,19:20,1.908,3.465,3.788,3.398,3.615,1.068,1.792,1.735,��,7.1,��
2015/03/16,19:30,1.908,3.463,3.787,3.402,3.612,1.070,1.792,1.733,��,7.2,��
2015/03/16,19:40,1.910,3.465,3.782,3.398,3.610,1.070,1.792,1.738,��,7.9,��
2015/03/16,19:50,1.913,3.465,3.788,3.402,3.608,1.070,1.792,1.735,��,7.1,��
2015/03/16,20:00,1.910,3.468,3.787,3.397,3.610,1.072,1.792,1.735,��,6.5,��
2015/03/16,20:10,1.912,3.467,3.785,3.398,3.607,1.072,1.790,1.733,��,6.9,��
2015/03/16,20:20,1.910,3.467,3.787,3.400,3.612,1.070,1.792,1.733,��,6.3,��
2015/03/16,20:30,1.912,3.467,3.788,3.400,3.608,1.070,1.792,1.737,��,7.4,��
2015/03/16,20:40,1.913,3.467,3.788,3.397,3.607,1.070,1.790,1.732,��,6.3,��
2015/03/16,20:50,1.913,3.463,3.787,3.400,3.603,1.068,1.792,1.733,��,6.3,��
2015/03/16,21:00,1.910,3.463,3.787,3.398,3.607,1.068,1.792,1.735,��,6.6,��
2015/03/16,21:10,1.908,3.463,3.785,3.398,3.605,1.067,1.793,1.735,��,6.0,��
2015/03/16,21:20,1.908,3.465,3.783,3.400,3.608,1.068,1.793,1.735,��,5.6,��
2015/03/16,21:30,1.905,3.465,3.785,3.398,3.610,1.072,1.793,1.732,��,5.7,��
2015/03/16,21:40,1.907,3.467,3.785,3.395,3.610,1.070,1.793,1.732,��,5.5,��
2015/03/16,21:50,1.910,3.465,3.783,3.395,3.608,1.072,1.792,1.733,��,6.1,��
2015/03/16,22:00,1.913,3.462,3.782,3.397,3.610,1.073,1.792,1.735,��,6.9,��
2015/03/16,22:10,1.912,3.462,3.787,3.397,3.612,1.073,1.792,1.733,��,7.1,��
2015/03/16,22:20,1.908,3.460,3.788,3.400,3.610,1.070,1.790,1.735,��,8.0,��
2015/03/16,22:30,1.910,3.462,3.783,3.400,3.602,1.070,1.792,1.733,��,7.7,��
2015/03/16,22:40,1.913,3.463,3.788,3.397,3.612,1.073,1.795,1.733,��,8.6,��
2015/03/16,22:50,1.912,3.465,3.790,3.398,3.608,1.075,1.792,1.735,��,7.4,��
2015/03/16,23:00,1.913,3.465,3.788,3.398,3.603,1.073,1.792,1.733,��,7.1,��
2015/03/16,23:10,1.915,3.460,3.782,3.397,3.607,1.072,1.792,1.735,��,6.7,��
2015/03/16,23:20,1.915,3.463,3.788,3.397,3.605,1.075,1.792,1.735,��,4.9,��
2015/03/16,23:30,1.913,3.463,3.787,3.398,3.605,1.073,1.793,1.735,��,5.7,��
2015/03/16,23:40,1.910,3.460,3.790,3.400,3.610,1.073,1.792,1.733,��,4.9,��
2015/03/16,23:50,1.910,3.463,3.782,3.400,3.573,1.072,1.790,1.733,��,4.9,��
